Home   Weather   Schwerte   Past weeks

Flag for Germany Past Weather in Schwerte, North Rhine-Westphalia, Germany — Yesterday and Last 2 Weeks

Now
34 °F

Passing clouds.


Feels Like: 27 °F
Forecast: 20 / 32 °F
Wind: 8 mph from South

Location: Duesseldorf

Current Time: Jan 25, 2017 at 2:47:21 am

Latest Report: Jan 25, 2017 at 2:20 am


Visibility: N/A

Pressure: 30.42 "Hg

Humidity: 70%

Dew Point: 25 °F

Location of SchwerteLocation

Past Weather in Schwerte — Graph

°F

Schwerte Temperature Yesterday

Maximum temperature yesterday: 36 °F (at 1:50 pm)
Minimum temperature yesterday: 30 °F (at 12:20 am)
Average temperature yesterday: 32 °F

High & Low Weather Summary for the Past Weeks

 TemperatureHumidityPressure
High46 °F (Jan 11, 2:20 pm)100% (Jan 13, 8:20 pm)30.72 "Hg (Jan 13, 8:20 pm)
Low18 °F (Jan 19, 6:20 am)39% (Jan 19, 2:50 pm)28.94 "Hg (Jan 13, 1:20 am)
Average32 °F82%30.20 "Hg
* Reported Jan 10 1:20 am — Jan 25 1:50 am, Schwerte, Weather by CustomWeather, © 2017

Note: Actual official high and low records may vary slightly from our data, if they occured in-between our weather recording intervals... More about our weather records

Advertising

Schwerte Weather History for the Previous 24 Hours

Scroll right to see more
 ConditionsComfort  
Time TempWeatherWind HumidityBarometerVisibility
1:50 am
Wed, Jan 25
32 °FPassing clouds.5 mph80%30.42 "HgN/A
1:20 am32 °FPassing clouds.6 mph80%30.42 "HgN/A
12:50 am34 °FPassing clouds.5 mph75%30.42 "HgN/A
12:20 am32 °FPartly cloudy.5 mph80%30.45 "HgN/A
11:50 pm
Tue, Jan 24
32 °FPartly cloudy.5 mph80%30.45 "HgN/A
11:20 pm32 °FPassing clouds.7 mph80%30.45 "HgN/A
10:50 pm32 °FPassing clouds.5 mph87%30.45 "Hg6 mi
10:20 pm32 °FPassing clouds.5 mph87%30.45 "Hg4 mi
9:50 pm32 °FPassing clouds.3 mph93%30.45 "Hg4 mi
9:20 pm32 °FPassing clouds.1 mph93%30.42 "Hg4 mi
8:50 pm32 °FPassing clouds.1 mph93%30.42 "Hg4 mi
8:20 pm32 °FPassing clouds.1 mph93%30.42 "Hg4 mi
7:50 pm32 °FPassing clouds.2 mph93%30.42 "Hg4 mi
7:20 pm34 °FFog.2 mph87%30.42 "Hg3 mi
6:50 pm34 °FFog.2 mph87%30.42 "Hg3 mi
6:20 pm34 °FFog.1 mph87%30.42 "Hg3 mi
5:50 pm34 °FFog.2 mph87%30.42 "Hg3 mi
5:20 pm34 °FFog.3 mph87%30.39 "Hg3 mi
4:50 pm34 °FFog.2 mph87%30.39 "Hg3 mi
4:20 pm36 °FFog.2 mph81%30.39 "Hg3 mi
3:50 pm36 °FFog.3 mph81%30.39 "Hg3 mi
3:20 pm36 °FBroken clouds.3 mph81%30.39 "Hg4 mi
2:50 pm36 °FBroken clouds.3 mph81%30.39 "Hg4 mi
2:20 pm36 °FBroken clouds.3 mph81%30.39 "Hg4 mi
1:50 pm36 °FBroken clouds.2 mph81%30.39 "Hg4 mi
1:20 pm34 °FFog.1 mph87%30.39 "Hg3 mi
12:20 pm34 °FFog.2 mph87%30.39 "Hg3 mi
11:50 am32 °FIce fog.3 mph87%30.39 "Hg3 mi
11:20 am32 °FPartly sunny.3 mph87%30.39 "Hg4 mi
10:50 am32 °FIce fog.6 mph87%30.39 "Hg3 mi
10:20 am32 °FIce fog.5 mph87%30.39 "Hg3 mi
9:50 am32 °FIce fog.6 mph87%30.36 "Hg3 mi
9:20 am30 °FIce fog.8 mph93%30.36 "Hg2 mi
8:50 am30 °FIce fog.9 mph93%30.36 "Hg2 mi
8:20 am30 °FIce fog.8 mph93%30.33 "Hg2 mi
7:50 am30 °FIce fog.8 mph93%30.33 "Hg2 mi
7:20 am30 °FLight snow. Ice fog.9 mph86%30.33 "Hg2 mi
6:50 am30 °FLight snow. Ice fog.7 mph93%30.33 "Hg2 mi
6:20 am30 °FLight snow. Ice fog.5 mph93%30.33 "Hg2 mi
5:50 am30 °FIce fog.5 mph93%30.30 "Hg2 mi
5:20 am30 °FIce fog.5 mph93%30.30 "Hg2 mi
4:50 am30 °FIce fog.6 mph93%30.30 "Hg2 mi
4:20 am30 °FIce fog.5 mph93%30.30 "Hg2 mi
3:50 am30 °FLight snow. Ice fog.6 mph93%30.30 "Hg2 mi
3:20 am30 °FLight snow. Ice fog.5 mph93%30.30 "Hg1 mi
2:50 am30 °FLight snow. Ice fog.7 mph93%30.30 "Hg1 mi
2:20 am30 °FLight snow. Ice fog.5 mph93%30.30 "Hg1 mi
Weather by CustomWeather, © 2017

See weather overviewHow to use our weather pages